sat.trackr.live / text

‹ back to catalog

TRANSPORTER-12 OBJECT BA

NORAD 62657 · 2025-009BA

PAYLOAD ACTIVE UNKNOWN

§ Identity

Operator
Country
TBD
Launch date
2025-01-14
Launch site
AFWTR
Launch vehicle
Mass (kg)
RCS (m²)

External: N2YO · Heavens-Above · Gunter

§ Orbital elements

Epoch: 2026-05-24T11:19:48.726336Z

Period
94.21 min
Inclination
97.3944°
Eccentricity
0.0002193
Mean motion
15.28548902 rev/d
Perigee alt
478.6 km
Apogee alt
481.7 km
Semi-major
6,858.3 km
B*
2.5228e-4
RAAN
226.3383°
Arg perigee
51.3441°
Mean anomaly
308.7995°
Rev number
7,530

§ Raw data

TRANSPORTER-12 OBJECT BA1 62657U 25009BA  26144.47209174  .00006933  00000+0  25228-3 0  99952 62657  97.3944 226.3383 0002193  51.3441 308.7995 15.28548902 75304

JSON: /api/v1/satellites/62657 · /tle

For live sub-satellite position, see the globe view (requires WebGL).

§ Visibility from observer

Set your observer location to see the next 7 days of passes ≥ 10°. The values pass through the URL so the page stays shareable.

No JS? Fill the form by hand. The geolocation button needs JavaScript.